Time,TemperatureF,DewpointF,PressureIn,WindDirection,WindDirectionDegrees,WindSpeedMPH,WindSpeedGustMPH,Humidity,HourlyPrecipIn,Conditions,Clouds,dailyrainin,SoftwareType,DateUTC
2013-04-30 00:02:00,61.8,33.2,29.53,North,-999,-999.0,-999.0,34,0.00,,,0.00,WSDL version 420,2013-04-30 05:02:00,
2013-04-30 00:08:00,61.6,33.0,29.53,North,-999,-999.0,-999.0,34,0.00,,,0.00,WSDL version 420,2013-04-30 05:08:00,
2013-04-30 00:14:00,61.3,32.8,29.56,North,-999,-999.0,-999.0,34,0.00,,,0.00,WSDL version 420,2013-04-30 05:14:00,
2013-04-30 00:20:00,60.7,32.5,29.56,North,-999,-999.0,-999.0,35,0.00,,,0.00,WSDL version 420,2013-04-30 05:20:00,
2013-04-30 00:26:00,60.3,32.6,29.53,North,-999,-999.0,-999.0,35,0.00,,,0.00,WSDL version 420,2013-04-30 05:26:00,
2013-04-30 00:32:00,60.5,32.8,29.53,North,-999,-999.0,-999.0,35,0.00,,,0.00,WSDL version 420,2013-04-30 05:32:00,
2013-04-30 00:38:00,60.7,32.9,29.53,North,-999,-999.0,-999.0,35,0.00,,,0.00,WSDL version 420,2013-04-30 05:38:00,
2013-04-30 00:44:00,60.4,32.7,29.53,North,-999,-999.0,-999.0,35,0.00,,,0.00,WSDL version 420,2013-04-30 05:44:00,
2013-04-30 00:50:00,60.3,32.6,29.53,North,-999,-999.0,-999.0,35,0.00,,,0.00,WSDL version 420,2013-04-30 05:50:00,
2013-04-30 00:56:00,60.1,32.4,29.53,North,-999,-999.0,-999.0,35,0.00,,,0.00,WSDL version 420,2013-04-30 05:56:00,
2013-04-30 01:02:00,60.0,32.4,29.53,North,-999,-999.0,-999.0,36,0.00,,,0.00,WSDL version 420,2013-04-30 06:02:00,
2013-04-30 01:08:00,60.1,33.1,29.53,North,-999,-999.0,-999.0,36,0.00,,,0.00,WSDL version 420,2013-04-30 06:08:00,
2013-04-30 01:14:00,60.2,33.1,29.53,North,-999,-999.0,-999.0,36,0.00,,,0.00,WSDL version 420,2013-04-30 06:14:00,
2013-04-30 01:20:00,60.2,33.2,29.53,North,-999,-999.0,-999.0,36,0.00,,,0.00,WSDL version 420,2013-04-30 06:20:00,
2013-04-30 01:26:00,60.2,33.1,29.53,North,-999,-999.0,-999.0,36,0.00,,,0.00,WSDL version 420,2013-04-30 06:26:00,
2013-04-30 01:32:00,60.3,33.3,29.53,North,-999,-999.0,-999.0,36,0.00,,,0.00,WSDL version 420,2013-04-30 06:32:00,
2013-04-30 01:38:00,60.5,33.4,29.53,North,-999,-999.0,-999.0,36,0.00,,,0.00,WSDL version 420,2013-04-30 06:38:00,
2013-04-30 01:44:00,61.0,33.1,29.53,North,-999,-999.0,-999.0,35,0.00,,,0.00,WSDL version 420,2013-04-30 06:44:00,
2013-04-30 01:50:00,61.3,33.0,29.53,North,-999,-999.0,-999.0,34,0.00,,,0.00,WSDL version 420,2013-04-30 06:50:00,
2013-04-30 01:56:00,61.5,32.9,29.53,North,-999,-999.0,-999.0,34,0.00,,,0.00,WSDL version 420,2013-04-30 06:56:00,
2013-04-30 02:02:00,61.7,33.1,29.53,North,-999,-999.0,-999.0,34,0.00,,,0.00,WSDL version 420,2013-04-30 07:02:00,
2013-04-30 02:08:00,61.8,33.1,29.53,North,-999,-999.0,-999.0,34,0.00,,,0.00,WSDL version 420,2013-04-30 07:08:00,
2013-04-30 02:14:00,61.9,33.2,29.53,North,-999,-999.0,-999.0,34,0.00,,,0.00,WSDL version 420,2013-04-30 07:14:00,
2013-04-30 02:20:00,61.9,32.5,29.53,North,-999,-999.0,-999.0,33,0.00,,,0.00,WSDL version 420,2013-04-30 07:20:00,
2013-04-30 02:26:00,61.9,32.5,29.53,North,-999,-999.0,-999.0,33,0.00,,,0.00,WSDL version 420,2013-04-30 07:26:00,
2013-04-30 02:32:00,61.9,31.7,29.53,North,-999,-999.0,-999.0,32,0.00,,,0.00,WSDL version 420,2013-04-30 07:32:00,
2013-04-30 02:38:00,61.9,31.7,29.53,North,-999,-999.0,-999.0,32,0.00,,,0.00,WSDL version 420,2013-04-30 07:38:00,
2013-04-30 02:44:00,61.9,31.3,29.53,North,-999,-999.0,-999.0,32,0.00,,,0.00,WSDL version 420,2013-04-30 07:44:00,
2013-04-30 02:50:00,61.9,31.2,29.53,North,-999,-999.0,-999.0,31,0.00,,,0.00,WSDL version 420,2013-04-30 07:50:00,
2013-04-30 02:56:00,61.8,30.9,29.53,North,-999,-999.0,-999.0,31,0.00,,,0.00,WSDL version 420,2013-04-30 07:56:00,
2013-04-30 03:02:00,61.7,30.8,29.53,North,-999,-999.0,-999.0,31,0.00,,,0.00,WSDL version 420,2013-04-30 08:02:00,
2013-04-30 03:08:00,61.7,30.8,29.53,North,-999,-999.0,-999.0,31,0.00,,,0.00,WSDL version 420,2013-04-30 08:08:00,
2013-04-30 03:14:00,61.7,30.8,29.53,North,-999,-999.0,-999.0,31,0.00,,,0.00,WSDL version 420,2013-04-30 08:14:00,
2013-04-30 03:20:00,61.7,30.8,29.53,North,-999,-999.0,-999.0,31,0.00,,,0.00,WSDL version 420,2013-04-30 08:20:00,
2013-04-30 03:26:00,61.6,30.7,29.53,North,-999,-999.0,-999.0,31,0.00,,,0.00,WSDL version 420,2013-04-30 08:26:00,
2013-04-30 03:32:00,60.9,30.4,29.53,North,-999,-999.0,-999.0,32,0.00,,,0.00,WSDL version 420,2013-04-30 08:32:00,
2013-04-30 03:38:00,60.0,30.6,29.53,North,-999,-999.0,-999.0,33,0.00,,,0.00,WSDL version 420,2013-04-30 08:38:00,
2013-04-30 03:44:00,59.1,30.9,29.53,North,-999,-999.0,-999.0,35,0.00,,,0.00,WSDL version 420,2013-04-30 08:44:00,
2013-04-30 03:50:00,58.5,31.0,29.53,North,-999,-999.0,-999.0,35,0.00,,,0.00,WSDL version 420,2013-04-30 08:50:00,
2013-04-30 03:56:00,57.9,30.5,29.53,North,-999,-999.0,-999.0,35,0.00,,,0.00,WSDL version 420,2013-04-30 08:56:00,
2013-04-30 04:02:00,57.9,31.1,29.53,North,-999,-999.0,-999.0,36,0.00,,,0.00,WSDL version 420,2013-04-30 09:02:00,
2013-04-30 04:08:00,57.4,30.6,29.53,North,-999,-999.0,-999.0,36,0.00,,,0.00,WSDL version 420,2013-04-30 09:08:00,
2013-04-30 04:14:00,57.3,31.3,29.53,North,-999,-999.0,-999.0,37,0.00,,,0.00,WSDL version 420,2013-04-30 09:14:00,
2013-04-30 04:20:00,57.5,31.4,29.53,North,-999,-999.0,-999.0,37,0.00,,,0.00,WSDL version 420,2013-04-30 09:20:00,
2013-04-30 04:26:00,57.5,31.5,29.53,North,-999,-999.0,-999.0,37,0.00,,,0.00,WSDL version 420,2013-04-30 09:26:00,
2013-04-30 04:32:00,57.2,31.2,29.53,North,-999,-999.0,-999.0,37,0.00,,,0.00,WSDL version 420,2013-04-30 09:32:00,
2013-04-30 04:38:00,56.7,30.9,29.53,North,-999,-999.0,-999.0,38,0.00,,,0.00,WSDL version 420,2013-04-30 09:38:00,
2013-04-30 04:44:00,57.1,31.7,29.53,North,-999,-999.0,-999.0,38,0.00,,,0.00,WSDL version 420,2013-04-30 09:44:00,
2013-04-30 04:50:00,57.2,31.8,29.53,North,-999,-999.0,-999.0,38,0.00,,,0.00,WSDL version 420,2013-04-30 09:50:00,
2013-04-30 04:56:00,56.9,31.2,29.53,North,-999,-999.0,-999.0,38,0.00,,,0.00,WSDL version 420,2013-04-30 09:56:00,
2013-04-30 05:02:00,56.8,31.5,29.53,North,-999,-999.0,-999.0,38,0.00,,,0.00,WSDL version 420,2013-04-30 10:02:00,
2013-04-30 05:08:00,56.7,31.4,29.53,North,-999,-999.0,-999.0,38,0.00,,,0.00,WSDL version 420,2013-04-30 10:08:00,
2013-04-30 05:14:00,56.8,31.6,29.53,North,-999,-999.0,-999.0,38,0.00,,,0.00,WSDL version 420,2013-04-30 10:14:00,
2013-04-30 05:20:00,56.7,31.4,29.53,North,-999,-999.0,-999.0,38,0.00,,,0.00,WSDL version 420,2013-04-30 10:20:00,
2013-04-30 05:26:00,56.7,31.7,29.53,North,-999,-999.0,-999.0,39,0.00,,,0.00,WSDL version 420,2013-04-30 10:26:00,
2013-04-30 05:32:00,56.7,31.9,29.53,North,-999,-999.0,-999.0,39,0.00,,,0.00,WSDL version 420,2013-04-30 10:32:00,
2013-04-30 05:38:00,56.5,31.3,29.53,North,-999,-999.0,-999.0,38,0.00,,,0.00,WSDL version 420,2013-04-30 10:38:00,
2013-04-30 05:44:00,56.3,31.4,29.53,North,-999,-999.0,-999.0,39,0.00,,,0.00,WSDL version 420,2013-04-30 10:44:00,
2013-04-30 05:50:00,56.3,31.6,29.53,North,-999,-999.0,-999.0,39,0.00,,,0.00,WSDL version 420,2013-04-30 10:50:00,
2013-04-30 05:56:00,56.1,31.4,29.53,North,-999,-999.0,-999.0,38,0.00,,,0.00,WSDL version 420,2013-04-30 10:56:00,
2013-04-30 06:02:00,55.8,31.0,29.53,North,-999,-999.0,-999.0,39,0.00,,,0.00,WSDL version 420,2013-04-30 11:02:00,
2013-04-30 06:08:00,55.8,31.3,29.53,North,-999,-999.0,-999.0,39,0.00,,,0.00,WSDL version 420,2013-04-30 11:08:00,
2013-04-30 06:14:00,55.7,31.1,29.53,North,-999,-999.0,-999.0,39,0.00,,,0.00,WSDL version 420,2013-04-30 11:14:00,
2013-04-30 06:20:00,55.4,31.2,29.53,North,-999,-999.0,-999.0,39,0.00,,,0.00,WSDL version 420,2013-04-30 11:20:00,
2013-04-30 06:26:00,54.8,30.6,29.53,North,-999,-999.0,-999.0,40,0.00,,,0.00,WSDL version 420,2013-04-30 11:26:00,
2013-04-30 06:32:00,54.9,31.4,29.53,North,-999,-999.0,-999.0,41,0.00,,,0.00,WSDL version 420,2013-04-30 11:32:00,
2013-04-30 06:38:00,55.2,31.9,29.53,North,-999,-999.0,-999.0,41,0.00,,,0.00,WSDL version 420,2013-04-30 11:38:00,
2013-04-30 06:44:00,55.4,32.0,29.56,North,-999,-999.0,-999.0,40,0.00,,,0.00,WSDL version 420,2013-04-30 11:44:00,
2013-04-30 06:50:00,55.6,32.3,29.56,North,-999,-999.0,-999.0,41,0.00,,,0.00,WSDL version 420,2013-04-30 11:50:00,
2013-04-30 06:56:00,55.5,32.1,29.56,North,-999,-999.0,-999.0,41,0.00,,,0.00,WSDL version 420,2013-04-30 11:56:00,
2013-04-30 07:02:00,55.3,32.0,29.56,North,-999,-999.0,-999.0,41,0.00,,,0.00,WSDL version 420,2013-04-30 12:02:00,
2013-04-30 07:08:00,55.2,32.3,29.56,North,-999,-999.0,-999.0,42,0.00,,,0.00,WSDL version 420,2013-04-30 12:08:00,
2013-04-30 07:14:00,55.3,32.6,29.56,North,-999,-999.0,-999.0,42,0.00,,,0.00,WSDL version 420,2013-04-30 12:14:00,
2013-04-30 07:20:00,55.5,33.0,29.56,North,-999,-999.0,-999.0,43,0.00,,,0.00,WSDL version 420,2013-04-30 12:20:00,
2013-04-30 07:26:00,55.8,33.6,29.56,North,-999,-999.0,-999.0,43,0.00,,,0.00,WSDL version 420,2013-04-30 12:26:00,
2013-04-30 07:32:00,56.2,34.0,29.56,North,-999,-999.0,-999.0,43,0.00,,,0.00,WSDL version 420,2013-04-30 12:32:00,
2013-04-30 07:38:00,56.6,34.4,29.56,North,-999,-999.0,-999.0,43,0.00,,,0.00,WSDL version 420,2013-04-30 12:38:00,
2013-04-30 07:44:00,57.0,34.9,29.56,North,-999,-999.0,-999.0,43,0.00,,,0.00,WSDL version 420,2013-04-30 12:44:00,
2013-04-30 07:50:00,57.9,35.2,29.56,North,-999,-999.0,-999.0,42,0.00,,,0.00,WSDL version 420,2013-04-30 12:50:00,
2013-04-30 07:56:00,58.6,34.9,29.56,North,-999,-999.0,-999.0,40,0.00,,,0.00,WSDL version 420,2013-04-30 12:56:00,
2013-04-30 08:02:00,59.3,34.7,29.56,North,-999,-999.0,-999.0,39,0.00,,,0.00,WSDL version 420,2013-04-30 13:02:00,
2013-04-30 08:08:00,60.0,35.0,29.56,North,-999,-999.0,-999.0,39,0.00,,,0.00,WSDL version 420,2013-04-30 13:08:00,
2013-04-30 08:14:00,60.6,35.1,29.59,North,-999,-999.0,-999.0,38,0.00,,,0.00,WSDL version 420,2013-04-30 13:14:00,
2013-04-30 08:20:00,61.2,35.3,29.59,North,-999,-999.0,-999.0,38,0.00,,,0.00,WSDL version 420,2013-04-30 13:20:00,
2013-04-30 08:26:00,61.9,35.4,29.59,North,-999,-999.0,-999.0,37,0.00,,,0.00,WSDL version 420,2013-04-30 13:26:00,
2013-04-30 08:32:00,62.8,36.1,29.59,North,-999,-999.0,-999.0,37,0.00,,,0.00,WSDL version 420,2013-04-30 13:32:00,
2013-04-30 08:38:00,63.7,36.3,29.59,North,-999,-999.0,-999.0,36,0.00,,,0.00,WSDL version 420,2013-04-30 13:38:00,
2013-04-30 08:44:00,64.5,36.4,29.59,North,-999,-999.0,-999.0,35,0.00,,,0.00,WSDL version 420,2013-04-30 13:44:00,
2013-04-30 08:50:00,65.3,36.3,29.59,North,-999,-999.0,-999.0,34,0.00,,,0.00,WSDL version 420,2013-04-30 13:50:00,
2013-04-30 08:56:00,65.9,36.7,29.59,North,-999,-999.0,-999.0,33,0.00,,,0.00,WSDL version 420,2013-04-30 13:56:00,
2013-04-30 09:02:00,66.5,36.5,29.59,North,-999,-999.0,-999.0,33,0.00,,,0.00,WSDL version 420,2013-04-30 14:02:00,
2013-04-30 09:08:00,67.1,36.7,29.59,North,-999,-999.0,-999.0,32,0.00,,,0.00,WSDL version 420,2013-04-30 14:08:00,
2013-04-30 09:14:00,67.6,36.4,29.59,North,-999,-999.0,-999.0,31,0.00,,,0.00,WSDL version 420,2013-04-30 14:14:00,
2013-04-30 09:20:00,68.2,35.5,29.59,North,-999,-999.0,-999.0,30,0.00,,,0.00,WSDL version 420,2013-04-30 14:20:00,
2013-04-30 09:26:00,69.1,36.6,29.59,North,-999,-999.0,-999.0,30,0.00,,,0.00,WSDL version 420,2013-04-30 14:26:00,
2013-04-30 09:32:00,69.8,36.1,29.59,North,-999,-999.0,-999.0,28,0.00,,,0.00,WSDL version 420,2013-04-30 14:32:00,
2013-04-30 09:38:00,70.5,35.8,29.59,North,-999,-999.0,-999.0,27,0.00,,,0.00,WSDL version 420,2013-04-30 14:38:00,
2013-04-30 09:44:00,71.1,35.5,29.59,North,-999,-999.0,-999.0,27,0.00,,,0.00,WSDL version 420,2013-04-30 14:44:00,
2013-04-30 09:50:00,71.8,34.6,29.59,North,-999,-999.0,-999.0,26,0.00,,,0.00,WSDL version 420,2013-04-30 14:50:00,
2013-04-30 09:56:00,72.6,35.1,29.59,North,-999,-999.0,-999.0,25,0.00,,,0.00,WSDL version 420,2013-04-30 14:56:00,
2013-04-30 10:02:00,73.2,34.3,29.59,North,-999,-999.0,-999.0,24,0.00,,,0.00,WSDL version 420,2013-04-30 15:02:00,
2013-04-30 10:08:00,73.9,34.8,29.59,North,-999,-999.0,-999.0,24,0.00,,,0.00,WSDL version 420,2013-04-30 15:08:00,
2013-04-30 10:14:00,74.4,34.2,29.59,North,-999,-999.0,-999.0,23,0.00,,,0.00,WSDL version 420,2013-04-30 15:14:00,
2013-04-30 10:20:00,75.0,34.4,29.59,North,-999,-999.0,-999.0,22,0.00,,,0.00,WSDL version 420,2013-04-30 15:20:00,
2013-04-30 10:26:00,75.6,34.1,29.59,North,-999,-999.0,-999.0,22,0.00,,,0.00,WSDL version 420,2013-04-30 15:26:00,
2013-04-30 10:32:00,76.0,34.5,29.59,North,-999,-999.0,-999.0,22,0.00,,,0.00,WSDL version 420,2013-04-30 15:32:00,
2013-04-30 10:38:00,76.7,35.1,29.59,North,-999,-999.0,-999.0,22,0.00,,,0.00,WSDL version 420,2013-04-30 15:38:00,
2013-04-30 10:44:00,77.0,34.1,29.59,North,-999,-999.0,-999.0,21,0.00,,,0.00,WSDL version 420,2013-04-30 15:44:00,
2013-04-30 10:50:00,77.5,34.6,29.59,North,-999,-999.0,-999.0,21,0.00,,,0.00,WSDL version 420,2013-04-30 15:50:00,
2013-04-30 10:56:00,78.1,35.0,29.59,North,-999,-999.0,-999.0,21,0.00,,,0.00,WSDL version 420,2013-04-30 15:56:00,
2013-04-30 11:02:00,78.3,33.9,29.59,North,-999,-999.0,-999.0,20,0.00,,,0.00,WSDL version 420,2013-04-30 16:02:00,
2013-04-30 11:08:00,78.4,34.1,29.59,North,-999,-999.0,-999.0,20,0.00,,,0.00,WSDL version 420,2013-04-30 16:08:00,
2013-04-30 11:14:00,78.7,34.3,29.59,North,-999,-999.0,-999.0,20,0.00,,,0.00,WSDL version 420,2013-04-30 16:14:00,
2013-04-30 11:20:00,79.2,34.7,29.59,North,-999,-999.0,-999.0,20,0.00,,,0.00,WSDL version 420,2013-04-30 16:20:00,
2013-04-30 11:26:00,79.4,34.9,29.59,North,-999,-999.0,-999.0,20,0.00,,,0.00,WSDL version 420,2013-04-30 16:26:00,
2013-04-30 11:32:00,79.8,35.2,29.59,North,-999,-999.0,-999.0,20,0.00,,,0.00,WSDL version 420,2013-04-30 16:32:00,
2013-04-30 11:38:00,80.1,35.5,29.59,North,-999,-999.0,-999.0,20,0.00,,,0.00,WSDL version 420,2013-04-30 16:38:00,
2013-04-30 11:44:00,80.6,35.0,29.59,North,-999,-999.0,-999.0,19,0.00,,,0.00,WSDL version 420,2013-04-30 16:44:00,
2013-04-30 11:50:00,81.1,34.5,29.59,North,-999,-999.0,-999.0,19,0.00,,,0.00,WSDL version 420,2013-04-30 16:50:00,
2013-04-30 11:56:00,81.5,33.9,29.59,North,-999,-999.0,-999.0,17,0.00,,,0.00,WSDL version 420,2013-04-30 16:56:00,
2013-04-30 12:02:00,81.7,33.2,29.59,North,-999,-999.0,-999.0,17,0.00,,,0.00,WSDL version 420,2013-04-30 17:02:00,
2013-04-30 12:08:00,81.8,32.8,29.59,North,-999,-999.0,-999.0,17,0.00,,,0.00,WSDL version 420,2013-04-30 17:08:00,
2013-04-30 12:14:00,82.6,33.1,29.59,North,-999,-999.0,-999.0,16,0.00,,,0.00,WSDL version 420,2013-04-30 17:14:00,
2013-04-30 12:20:00,82.9,32.1,29.59,North,-999,-999.0,-999.0,16,0.00,,,0.00,WSDL version 420,2013-04-30 17:20:00,
2013-04-30 12:26:00,82.9,32.1,29.59,North,-999,-999.0,-999.0,16,0.00,,,0.00,WSDL version 420,2013-04-30 17:26:00,
2013-04-30 12:32:00,83.5,32.6,29.59,North,-999,-999.0,-999.0,16,0.00,,,0.00,WSDL version 420,2013-04-30 17:32:00,
2013-04-30 12:38:00,83.5,32.6,29.59,North,-999,-999.0,-999.0,16,0.00,,,0.00,WSDL version 420,2013-04-30 17:38:00,
2013-04-30 12:44:00,83.7,32.8,29.59,North,-999,-999.0,-999.0,16,0.00,,,0.00,WSDL version 420,2013-04-30 17:44:00,
2013-04-30 12:50:00,84.1,33.1,29.59,North,-999,-999.0,-999.0,16,0.00,,,0.00,WSDL version 420,2013-04-30 17:50:00,
2013-04-30 12:56:00,84.5,33.4,29.59,North,-999,-999.0,-999.0,16,0.00,,,0.00,WSDL version 420,2013-04-30 17:56:00,
2013-04-30 13:02:00,84.7,33.6,29.59,North,-999,-999.0,-999.0,16,0.00,,,0.00,WSDL version 420,2013-04-30 18:02:00,
2013-04-30 13:08:00,85.1,33.9,29.59,North,-999,-999.0,-999.0,16,0.00,,,0.00,WSDL version 420,2013-04-30 18:08:00,
2013-04-30 13:14:00,85.1,33.9,29.59,North,-999,-999.0,-999.0,16,0.00,,,0.00,WSDL version 420,2013-04-30 18:14:00,
2013-04-30 13:20:00,85.4,34.2,29.59,North,-999,-999.0,-999.0,16,0.00,,,0.00,WSDL version 420,2013-04-30 18:20:00,
2013-04-30 13:26:00,84.9,32.9,29.59,North,-999,-999.0,-999.0,15,0.00,,,0.00,WSDL version 420,2013-04-30 18:26:00,
2013-04-30 13:32:00,84.9,31.7,29.59,North,-999,-999.0,-999.0,16,0.00,,,0.00,WSDL version 420,2013-04-30 18:32:00,
2013-04-30 13:38:00,85.0,31.8,29.59,North,-999,-999.0,-999.0,16,0.00,,,0.00,WSDL version 420,2013-04-30 18:38:00,
2013-04-30 13:44:00,84.9,29.5,29.59,North,-999,-999.0,-999.0,13,0.00,,,0.00,WSDL version 420,2013-04-30 18:44:00,
2013-04-30 13:50:00,84.6,29.3,29.59,North,-999,-999.0,-999.0,13,0.00,,,0.00,WSDL version 420,2013-04-30 18:50:00,
2013-04-30 13:56:00,84.3,28.2,29.59,North,-999,-999.0,-999.0,13,0.00,,,0.00,WSDL version 420,2013-04-30 18:56:00,
2013-04-30 14:02:00,84.0,29.4,29.59,North,-999,-999.0,-999.0,14,0.00,,,0.00,WSDL version 420,2013-04-30 19:02:00,
2013-04-30 14:08:00,83.7,29.5,29.59,North,-999,-999.0,-999.0,14,0.00,,,0.00,WSDL version 420,2013-04-30 19:08:00,
2013-04-30 14:14:00,83.5,29.3,29.59,North,-999,-999.0,-999.0,14,0.00,,,0.00,WSDL version 420,2013-04-30 19:14:00,
2013-04-30 14:20:00,83.6,29.4,29.59,North,-999,-999.0,-999.0,14,0.00,,,0.00,WSDL version 420,2013-04-30 19:20:00,
2013-04-30 14:26:00,83.6,29.4,29.59,North,-999,-999.0,-999.0,14,0.00,,,0.00,WSDL version 420,2013-04-30 19:26:00,
2013-04-30 14:32:00,83.5,29.4,29.59,North,-999,-999.0,-999.0,14,0.00,,,0.00,WSDL version 420,2013-04-30 19:32:00,
2013-04-30 14:38:00,83.6,29.4,29.59,North,-999,-999.0,-999.0,14,0.00,,,0.00,WSDL version 420,2013-04-30 19:38:00,
2013-04-30 14:44:00,83.8,29.6,29.59,North,-999,-999.0,-999.0,14,0.00,,,0.00,WSDL version 420,2013-04-30 19:44:00,
2013-04-30 14:50:00,83.6,29.4,29.59,North,-999,-999.0,-999.0,14,0.00,,,0.00,WSDL version 420,2013-04-30 19:50:00,
2013-04-30 14:56:00,83.2,29.1,29.59,North,-999,-999.0,-999.0,14,0.00,,,0.00,WSDL version 420,2013-04-30 19:56:00,
2013-04-30 15:02:00,82.9,28.9,29.59,North,-999,-999.0,-999.0,14,0.00,,,0.00,WSDL version 420,2013-04-30 20:02:00,
2013-04-30 15:08:00,82.7,28.7,29.59,North,-999,-999.0,-999.0,14,0.00,,,0.00,WSDL version 420,2013-04-30 20:08:00,
2013-04-30 15:14:00,82.7,28.7,29.59,North,-999,-999.0,-999.0,14,0.00,,,0.00,WSDL version 420,2013-04-30 20:14:00,
2013-04-30 15:20:00,82.6,28.6,29.59,North,-999,-999.0,-999.0,14,0.00,,,0.00,WSDL version 420,2013-04-30 20:20:00,
2013-04-30 15:26:00,82.0,28.1,29.59,North,-999,-999.0,-999.0,14,0.00,,,0.00,WSDL version 420,2013-04-30 20:26:00,
2013-04-30 15:32:00,81.7,27.9,29.59,North,-999,-999.0,-999.0,14,0.00,,,0.00,WSDL version 420,2013-04-30 20:32:00,
2013-04-30 15:38:00,81.8,28.0,29.59,North,-999,-999.0,-999.0,14,0.00,,,0.00,WSDL version 420,2013-04-30 20:38:00,
2013-04-30 15:44:00,81.6,27.8,29.56,North,-999,-999.0,-999.0,14,0.00,,,0.00,WSDL version 420,2013-04-30 20:44:00,
2013-04-30 15:50:00,81.4,27.7,29.56,North,-999,-999.0,-999.0,14,0.00,,,0.00,WSDL version 420,2013-04-30 20:50:00,
2013-04-30 15:56:00,81.3,27.6,29.56,North,-999,-999.0,-999.0,14,0.00,,,0.00,WSDL version 420,2013-04-30 20:56:00,
2013-04-30 16:02:00,81.3,27.6,29.56,North,-999,-999.0,-999.0,14,0.00,,,0.00,WSDL version 420,2013-04-30 21:02:00,
2013-04-30 16:08:00,81.2,27.5,29.56,North,-999,-999.0,-999.0,14,0.00,,,0.00,WSDL version 420,2013-04-30 21:08:00,
2013-04-30 16:14:00,81.0,27.4,29.56,North,-999,-999.0,-999.0,14,0.00,,,0.00,WSDL version 420,2013-04-30 21:14:00,
2013-04-30 16:20:00,80.8,27.2,29.56,North,-999,-999.0,-999.0,14,0.00,,,0.00,WSDL version 420,2013-04-30 21:20:00,
2013-04-30 16:26:00,80.6,27.0,29.56,North,-999,-999.0,-999.0,14,0.00,,,0.00,WSDL version 420,2013-04-30 21:26:00,
2013-04-30 16:32:00,80.6,27.3,29.56,North,-999,-999.0,-999.0,15,0.00,,,0.00,WSDL version 420,2013-04-30 21:32:00,
2013-04-30 16:38:00,80.6,27.0,29.56,North,-999,-999.0,-999.0,14,0.00,,,0.00,WSDL version 420,2013-04-30 21:38:00,
2013-04-30 16:44:00,80.7,27.1,29.56,North,-999,-999.0,-999.0,14,0.00,,,0.00,WSDL version 420,2013-04-30 21:44:00,
2013-04-30 16:50:00,80.7,27.2,29.56,North,-999,-999.0,-999.0,14,0.00,,,0.00,WSDL version 420,2013-04-30 21:50:00,
2013-04-30 16:56:00,80.8,27.2,29.56,North,-999,-999.0,-999.0,14,0.00,,,0.00,WSDL version 420,2013-04-30 21:56:00,
2013-04-30 17:02:00,80.7,27.1,29.56,North,-999,-999.0,-999.0,14,0.00,,,0.00,WSDL version 420,2013-04-30 22:02:00,
2013-04-30 17:08:00,80.8,27.2,29.56,North,-999,-999.0,-999.0,14,0.00,,,0.00,WSDL version 420,2013-04-30 22:08:00,
2013-04-30 17:14:00,80.8,27.2,29.56,North,-999,-999.0,-999.0,14,0.00,,,0.00,WSDL version 420,2013-04-30 22:14:00,
2013-04-30 17:20:00,80.8,27.2,29.56,North,-999,-999.0,-999.0,14,0.00,,,0.00,WSDL version 420,2013-04-30 22:20:00,
2013-04-30 17:26:00,80.5,28.3,29.56,North,-999,-999.0,-999.0,15,0.00,,,0.00,WSDL version 420,2013-04-30 22:26:00,
2013-04-30 17:32:00,80.2,28.4,29.56,North,-999,-999.0,-999.0,15,0.00,,,0.00,WSDL version 420,2013-04-30 22:32:00,
2013-04-30 17:38:00,80.0,28.3,29.56,North,-999,-999.0,-999.0,15,0.00,,,0.00,WSDL version 420,2013-04-30 22:38:00,
2013-04-30 17:44:00,79.8,28.1,29.56,North,-999,-999.0,-999.0,15,0.00,,,0.00,WSDL version 420,2013-04-30 22:44:00,
2013-04-30 17:50:00,79.7,28.0,29.56,North,-999,-999.0,-999.0,15,0.00,,,0.00,WSDL version 420,2013-04-30 22:50:00,
2013-04-30 17:56:00,79.9,28.2,29.56,North,-999,-999.0,-999.0,15,0.00,,,0.00,WSDL version 420,2013-04-30 22:56:00,
2013-04-30 18:02:00,79.9,28.2,29.56,North,-999,-999.0,-999.0,15,0.00,,,0.00,WSDL version 420,2013-04-30 23:02:00,
2013-04-30 18:08:00,79.8,28.1,29.56,North,-999,-999.0,-999.0,15,0.00,,,0.00,WSDL version 420,2013-04-30 23:08:00,
2013-04-30 18:14:00,79.5,27.9,29.56,North,-999,-999.0,-999.0,15,0.00,,,0.00,WSDL version 420,2013-04-30 23:14:00,
2013-04-30 18:20:00,79.2,27.6,29.56,North,-999,-999.0,-999.0,15,0.00,,,0.00,WSDL version 420,2013-04-30 23:20:00,
2013-04-30 18:26:00,78.8,27.3,29.56,North,-999,-999.0,-999.0,15,0.00,,,0.00,WSDL version 420,2013-04-30 23:26:00,
2013-04-30 18:32:00,78.4,27.0,29.56,North,-999,-999.0,-999.0,15,0.00,,,0.00,WSDL version 420,2013-04-30 23:32:00,
2013-04-30 18:38:00,78.1,26.8,29.56,North,-999,-999.0,-999.0,15,0.00,,,0.00,WSDL version 420,2013-04-30 23:38:00,
2013-04-30 18:44:00,77.9,26.6,29.56,North,-999,-999.0,-999.0,15,0.00,,,0.00,WSDL version 420,2013-04-30 23:44:00,
2013-04-30 18:50:00,77.8,26.5,29.56,North,-999,-999.0,-999.0,15,0.00,,,0.00,WSDL version 420,2013-04-30 23:50:00,
2013-04-30 18:56:00,77.5,26.3,29.56,North,-999,-999.0,-999.0,15,0.00,,,0.00,WSDL version 420,2013-04-30 23:56:00,
2013-04-30 19:02:00,77.3,26.1,29.56,North,-999,-999.0,-999.0,15,0.00,,,0.00,WSDL version 420,2013-05-01 00:02:00,
2013-04-30 19:08:00,77.1,25.9,29.56,North,-999,-999.0,-999.0,15,0.00,,,0.00,WSDL version 420,2013-05-01 00:08:00,
2013-04-30 19:14:00,76.8,25.7,29.56,North,-999,-999.0,-999.0,15,0.00,,,0.00,WSDL version 420,2013-05-01 00:14:00,
2013-04-30 19:20:00,76.5,25.5,29.56,North,-999,-999.0,-999.0,15,0.00,,,0.00,WSDL version 420,2013-05-01 00:20:00,
2013-04-30 19:26:00,76.2,25.2,29.56,North,-999,-999.0,-999.0,15,0.00,,,0.00,WSDL version 420,2013-05-01 00:26:00,
2013-04-30 19:32:00,75.8,24.9,29.56,North,-999,-999.0,-999.0,15,0.00,,,0.00,WSDL version 420,2013-05-01 00:32:00,
2013-04-30 19:38:00,75.3,24.5,29.56,North,-999,-999.0,-999.0,15,0.00,,,0.00,WSDL version 420,2013-05-01 00:38:00,
2013-04-30 19:44:00,74.8,25.6,29.59,North,-999,-999.0,-999.0,16,0.00,,,0.00,WSDL version 420,2013-05-01 00:44:00,
2013-04-30 19:50:00,74.3,25.3,29.59,North,-999,-999.0,-999.0,16,0.00,,,0.00,WSDL version 420,2013-05-01 00:50:00,
2013-04-30 19:56:00,73.9,26.8,29.56,North,-999,-999.0,-999.0,18,0.00,,,0.00,WSDL version 420,2013-05-01 00:56:00,
2013-04-30 20:02:00,73.7,27.6,29.56,North,-999,-999.0,-999.0,18,0.00,,,0.00,WSDL version 420,2013-05-01 01:02:00,
2013-04-30 20:08:00,73.5,27.4,29.56,North,-999,-999.0,-999.0,18,0.00,,,0.00,WSDL version 420,2013-05-01 01:08:00,
2013-04-30 20:14:00,73.3,28.3,29.59,North,-999,-999.0,-999.0,19,0.00,,,0.00,WSDL version 420,2013-05-01 01:14:00,
2013-04-30 20:20:00,72.7,28.1,29.59,North,-999,-999.0,-999.0,19,0.00,,,0.00,WSDL version 420,2013-05-01 01:20:00,
2013-04-30 20:26:00,72.4,27.9,29.59,North,-999,-999.0,-999.0,19,0.00,,,0.00,WSDL version 420,2013-05-01 01:26:00,
2013-04-30 20:32:00,72.2,27.7,29.59,North,-999,-999.0,-999.0,19,0.00,,,0.00,WSDL version 420,2013-05-01 01:32:00,
2013-04-30 20:38:00,72.0,27.5,29.59,North,-999,-999.0,-999.0,19,0.00,,,0.00,WSDL version 420,2013-05-01 01:38:00,
2013-04-30 20:44:00,71.6,27.2,29.59,North,-999,-999.0,-999.0,19,0.00,,,0.00,WSDL version 420,2013-05-01 01:44:00,
2013-04-30 20:50:00,71.1,30.4,29.59,North,-999,-999.0,-999.0,22,0.00,,,0.00,WSDL version 420,2013-05-01 01:50:00,
2013-04-30 20:56:00,70.7,30.1,29.59,North,-999,-999.0,-999.0,22,0.00,,,0.00,WSDL version 420,2013-05-01 01:56:00,
2013-04-30 21:02:00,70.4,29.8,29.59,North,-999,-999.0,-999.0,22,0.00,,,0.00,WSDL version 420,2013-05-01 02:02:00,
2013-04-30 21:08:00,70.1,29.5,29.59,North,-999,-999.0,-999.0,22,0.00,,,0.00,WSDL version 420,2013-05-01 02:08:00,
2013-04-30 21:14:00,69.9,29.3,29.59,North,-999,-999.0,-999.0,22,0.00,,,0.00,WSDL version 420,2013-05-01 02:14:00,
2013-04-30 21:20:00,69.6,29.1,29.59,North,-999,-999.0,-999.0,22,0.00,,,0.00,WSDL version 420,2013-05-01 02:20:00,
2013-04-30 21:26:00,69.6,29.3,29.59,North,-999,-999.0,-999.0,23,0.00,,,0.00,WSDL version 420,2013-05-01 02:26:00,
2013-04-30 21:32:00,69.4,30.1,29.59,North,-999,-999.0,-999.0,23,0.00,,,0.00,WSDL version 420,2013-05-01 02:32:00,
2013-04-30 21:38:00,69.4,30.1,29.59,North,-999,-999.0,-999.0,23,0.00,,,0.00,WSDL version 420,2013-05-01 02:38:00,
2013-04-30 21:44:00,69.3,29.9,29.59,North,-999,-999.0,-999.0,23,0.00,,,0.00,WSDL version 420,2013-05-01 02:44:00,
2013-04-30 21:50:00,69.2,29.9,29.59,North,-999,-999.0,-999.0,23,0.00,,,0.00,WSDL version 420,2013-05-01 02:50:00,
2013-04-30 21:56:00,69.0,29.7,29.59,North,-999,-999.0,-999.0,23,0.00,,,0.00,WSDL version 420,2013-05-01 02:56:00,
2013-04-30 22:02:00,68.8,29.5,29.59,North,-999,-999.0,-999.0,23,0.00,,,0.00,WSDL version 420,2013-05-01 03:02:00,
2013-04-30 22:08:00,68.5,29.3,29.59,North,-999,-999.0,-999.0,23,0.00,,,0.00,WSDL version 420,2013-05-01 03:08:00,
2013-04-30 22:14:00,68.3,29.1,29.59,North,-999,-999.0,-999.0,23,0.00,,,0.00,WSDL version 420,2013-05-01 03:14:00,
2013-04-30 22:20:00,67.8,28.7,29.59,North,-999,-999.0,-999.0,23,0.00,,,0.00,WSDL version 420,2013-05-01 03:20:00,
2013-04-30 22:26:00,67.6,29.6,29.59,North,-999,-999.0,-999.0,24,0.00,,,0.00,WSDL version 420,2013-05-01 03:26:00,
2013-04-30 22:32:00,67.6,29.5,29.59,North,-999,-999.0,-999.0,24,0.00,,,0.00,WSDL version 420,2013-05-01 03:32:00,
2013-04-30 22:38:00,67.2,29.3,29.59,North,-999,-999.0,-999.0,24,0.00,,,0.00,WSDL version 420,2013-05-01 03:38:00,
2013-04-30 22:44:00,66.6,28.7,29.62,North,-999,-999.0,-999.0,24,0.00,,,0.00,WSDL version 420,2013-05-01 03:44:00,
2013-04-30 22:50:00,66.4,28.6,29.62,North,-999,-999.0,-999.0,24,0.00,,,0.00,WSDL version 420,2013-05-01 03:50:00,
2013-04-30 22:56:00,66.6,28.7,29.59,North,-999,-999.0,-999.0,24,0.00,,,0.00,WSDL version 420,2013-05-01 03:56:00,
2013-04-30 23:02:00,66.3,28.9,29.59,North,-999,-999.0,-999.0,25,0.00,,,0.00,WSDL version 420,2013-05-01 04:02:00,
2013-04-30 23:08:00,66.0,29.2,29.59,North,-999,-999.0,-999.0,25,0.00,,,0.00,WSDL version 420,2013-05-01 04:08:00,
2013-04-30 23:14:00,65.8,29.6,29.59,North,-999,-999.0,-999.0,25,0.00,,,0.00,WSDL version 420,2013-05-01 04:14:00,
2013-04-30 23:17:00,65.8,29.3,29.59,North,-999,-999.0,-999.0,25,0.00,,,0.00,WSDL version 420,2013-05-01 04:17:00,
2013-04-30 23:20:00,65.7,29.4,29.59,North,-999,-999.0,-999.0,26,0.00,,,0.00,WSDL version 420,2013-05-01 04:20:00,
2013-04-30 23:26:00,65.5,29.7,29.59,North,-999,-999.0,-999.0,26,0.00,,,0.00,WSDL version 420,2013-05-01 04:26:00,
2013-04-30 23:32:00,65.1,29.9,29.59,North,-999,-999.0,-999.0,27,0.00,,,0.00,WSDL version 420,2013-05-01 04:32:00,
2013-04-30 23:38:00,65.0,30.3,29.59,North,-999,-999.0,-999.0,27,0.00,,,0.00,WSDL version 420,2013-05-01 04:38:00,
2013-04-30 23:44:00,64.9,30.6,29.59,North,-999,-999.0,-999.0,28,0.00,,,0.00,WSDL version 420,2013-05-01 04:44:00,
2013-04-30 23:50:00,64.6,31.0,29.59,North,-999,-999.0,-999.0,28,0.00,,,0.00,WSDL version 420,2013-05-01 04:50:00,
2013-04-30 23:56:00,64.5,30.7,29.59,North,-999,-999.0,-999.0,28,0.00,,,0.00,WSDL version 420,2013-05-01 04:56:00,